User: anonymous   Login
Location: Unspecified
(0.0000°N, 0.0000°E)
Time: 00:49:43
(UTC+00:00)
Language:

Snapshot - Orbit

View from above orbital plane
View from above orbital plane
View from above satellite
View from above satellite

Ground track
Ground track

The orbit data is extracted from the following two-line orbital elements,

1  1314U 65027A   17207.25563519 -.00000002 +00000-0 -35495-4 0  9996
2  1314 090.3111 285.8386 0031934 117.0409 301.8098 12.91750221211708
Epoch (UTC): 26 July 2017 06:08:06
Eccentricity: 0.0031934
inclination: 90.3111°
perigee height: 1270 km
apogee height: 1319 km
right ascension of ascending node: 285.8386°
argument of perigee: 117.0409°
revolutions per day: 12.91750221
mean anomaly at epoch: 301.8098°
orbit number at epoch: 21170

The dashed part of the orbit path shows where the satellite is in the earth's shadow,  

DLR